[[{"header":{"parameterUnit":"m.s-1","parameterCategory":2,"la1":30.2991,"la2":30.254,"lo1":-89.0895,"lo2":-89.0444,"dy":0.0017,"dx":0.0017,"nx":28,"ny":28,"refTime":"2024-05-22T21:00:00:Z","depth":"0","parameterNumber":2,"parameterNumberName":"U-component_of_CURRENTS"},"data":[0,0,0,0,0,0,0,0,0,0,0,0,0,0,0,0,0,0,0,0,0,0,0,0,0,0,0,0,0,0,0,0,0,0,0,0,0,0,0,0,0,0,0,0,0,0,0,0,0,0,0,0,0,0,0,0,0,0,0.1879,0.188,0,0.1878,0.1878,0.1878,0.1863,0.1862,0.1862,0.1862,0.1853,0.1853,0.1853,0,0,0,0,0,0,0,0,0,0,0,0,0,0.1893,0.1892,0.1879,0.188,0.188,0.1878,0.1878,0.1878,0.1863,0.1862,0.1862,0.1862,0.1853,0.1853,0.1853,0,0,0,0,0,0,0,0,0,0,0,0,0,0.1888,0.1892,0.1879,0.1873,0.1872,0.1878,0.1878,0.1878,0.1863,0.1862,0.1862,0.1862,0.1853,0.1853,0.1853,0.1863,0,0,0.1854,0.1854,0,0,0,0,0,0,0,0,0.1888,0.1887,0.1874,0.1873,0.1873,0.1871,0.1879,0.1873,0.1863,0.1865,0.1862,0.1861,0.186,0.1859,0.1859,0.1862,0.1862,0.1854,0.1854,0.1854,0.1854,0,0,0,0,0,0,0,0.1888,0.1887,0.1878,0.1874,0.1873,0.1878,0.1876,0.1878,0.1864,0.1865,0.1864,0.1866,0.1859,0.1858,0.1858,0.1862,0.1854,0.1854,0.1854,0.1854,0.1905,0.1907,0,0,0,0,0,0,0.1889,0.1887,0.1878,0.1878,0.188,0.1878,0.1876,0.1871,0.1864,0.1863,0.1866,0.1865,0.1859,0.1858,0.1858,0.1889,0.1854,0.1854,0.1854,0.1904,0.1906,0.1907,0,0,0,0,0,0,0.189,0.1888,0.1878,0.1884,0.1883,0.1878,0.1873,0.1871,0.1872,0.1865,0.1864,0.1868,0.1858,0.1858,0.1868,0.1887,0.1854,0.1854,0.1903,0.1905,0.1906,0.1937,0,0,0,0,0,0,0.189,0.1888,0.1887,0.1884,0.1883,0.1882,0.1873,0.1872,0.1873,0.1872,0.1866,0.1865,0.1858,0.1868,0.1868,0.1887,0.1854,0.1901,0.1903,0.1906,0.1935,0.194,0.1945,0,0,0,0,0,0.189,0.1887,0.1887,0.1886,0.188,0.1883,0.1882,0.1877,0.1874,0.1875,0.1878,0.1865,0.1885,0.1869,0.1869,0.1888,0.19,0.1903,0.1906,0.1932,0.1939,0.1945,0,0,0,0,0,0,0.189,0.1886,0.1885,0.188,0.1883,0.188,0.1881,0.1881,0.1884,0.1883,0.1877,0.1876,0.1896,0.189,0.1874,0.1913,0.1892,0.1896,0.1913,0.1919,0.1924,0.1924,0.1854,0,0,0,0,0,0.1891,0.1887,0.1887,0.1884,0.1886,0.1886,0.1887,0.1885,0.1887,0.1888,0.1885,0.1891,0.1909,0.1911,0.192,0.1935,0.1935,0.195,0.1956,0.196,0.1962,0.1993,0.2001,0.1917,0.1917,0.1917,0,0,0.1888,0.1887,0.1884,0.1884,0.1886,0.1891,0.1885,0.1888,0.1896,0.1887,0.1896,0.1908,0.1919,0.1941,0.1949,0.1936,0.1983,0.1964,0.1967,0.1967,0.1997,0.2005,0.2012,0.1919,0.1919,0.1918,0,0,0.1884,0.1883,0.188,0.1886,0.1891,0.1895,0.1898,0.1899,0.1903,0.1917,0.1923,0.1946,0.1955,0.1974,0.1985,0.2025,0.2012,0.2029,0.2049,0.208,0.2087,0.2093,0.2093,0.2099,0.2027,0.2027,0.2028,0,0.1883,0.1878,0.1881,0.1885,0.189,0.1898,0.1902,0.1913,0.1918,0.193,0.1922,0.1966,0.1975,0.2018,0.2036,0.2036,0.204,0.2022,0.2086,0.2092,0.2098,0.2097,0.2103,0.2029,0.2029,0.2029,0.2029,0,0.1877,0.1878,0.1879,0.1886,0.1895,0.1899,0.1916,0.193,0.1939,0.195,0.1988,0.2006,0.2031,0.2047,0.2053,0.2105,0.2089,0.209,0.2066,0.2108,0.2104,0.211,0.2032,0.2031,0.2031,0.203,0,0,0.186,0.1871,0.1872,0.1876,0.1895,0.19,0.1927,0.1952,0.1974,0.1991,0.2023,0.2065,0.2075,0.209,0.2105,0.2137,0.2182,0.2132,0.2133,0.2125,0.223,0.2136,0.2132,0.2195,0.2196,0.2197,0.2207,0,0.1854,0.1856,0.1868,0.1877,0.1879,0.1906,0.1932,0.1961,0.1987,0.2022,0.2059,0.2094,0.2091,0.2112,0.2144,0.2183,0.2201,0.2178,0.2197,0.2197,0.2103,0.2138,0.1996,0.1986,0.2212,0.2213,0.2214,0,0.184,0.1845,0.1847,0.1872,0.1878,0.1892,0.1936,0.1961,0.2021,0.2045,0.2086,0.2112,0.217,0.2161,0.2224,0.221,0.2219,0.2239,0.224,0.2144,0.2114,0.1985,0.1988,0.1916,0.2222,0.2222,0.2221,0,0.1813,0.1829,0.183,0.1837,0.187,0.1887,0.1912,0.1966,0.1994,0.2063,0.2091,0.215,0.2181,0.2221,0.2246,0.2246,0.2304,0.2306,0.2221,0.2214,0.2093,0.2071,0.2021,0.234,0.234,0.234,0.234,0,0.1794,0.1795,0.1818,0.1818,0.1836,0.1868,0.1899,0.1939,0.2001,0.2036,0.2096,0.2129,0.2201,0.2235,0.2258,0.2246,0.2306,0.2226,0.2216,0.2097,0.2077,0.2008,0.1986,0.2341,0.2341,0.234,0.234,0,0.1759,0.1773,0.1776,0.1808,0.1819,0.1831,0.1882,0.1909,0.1972,0.2022,0.2046,0.2124,0.2164,0.2207,0.2268,0.2241,0.2164,0.2231,0.2068,0.2037,0.1877,0.1862,0.171,0.1675,0.2144,0.2142,0.214,0,0.174,0.1735,0.1758,0.1763,0.1776,0.1801,0.1822,0.1886,0.1917,0.2007,0.2029,0.2086,0.21,0.2135,0.2115,0.2111,0.2069,0.1968,0.1942,0.1844,0.1822,0.174,0.1719,0.1795,0.1791,0.1787,0.1784,0,0.1707,0.1714,0.1721,0.1727,0.1742,0.1759,0.1794,0.1815,0.1891,0.1925,0.1971,0.1989,0.1998,0.1926,0.1904,0.1889,0.1824,0.189,0.1843,0.1584,0.1437,0.1406,0.1803,0.1751,0.1754,0.1757,0.1758,0.176,0.1685,0.1679,0.1686,0.1685,0.17,0.1711,0.1699,0.1739,0.1764,0.178,0.1863,0.1823,0.1767,0.1712,0.1686,0.1526,0.1583,0.1454,0.1456,0.1392,0.1309,0.1612,0.1515,0.1517,0.1518,0.152,0.1521,0,0.1645,0.1641,0.1643,0.1635,0.162,0.165,0.1669,0.164,0.1622,0.1639,0.1641,0.1539,0.1422,0.1369,0.1213,0.1113,0.1068,0.1064,0.0938,0.0958,0.127,0.1206,0.0968,0.0968,0.0968,0.0968,0.0968,0.0968,0.1628,0.1604,0.1595,0.1549,0.1541,0.1499,0.1488,0.1456,0.1444,0.1344,0.1255,0.1242,0.1162,0.096,0.0803,0.0783,0.0726,0.0603,0.0692,0.0925,0.0962,0.0998,0.0933,0.0643,0.0642,0.0304,0.0301,0.0299]},{"header":{"parameterUnit":"m.s-1","parameterCategory":2,"la1":30.2991,"la2":30.254,"lo1":-89.0895,"lo2":-89.0444,"dy":0.0017,"dx":0.0017,"nx":28,"ny":28,"refTime":"2024-05-22T21:00:00:Z","depth":"0","parameterNumber":3,"parameterNumberName":"V-component_of_CURRENTS"},"data":[0,0,0,0,0,0,0,0,0,0,0,0,0,0,0,0,0,0,0,0,0,0,0,0,0,0,0,0,0,0,0,0,0,0,0,0,0,0,0,0,0,0,0,0,0,0,0,0,0,0,0,0,0,0,0,0,0,0,0.0357,0.0358,0,0.0364,0.0364,0.0364,0.0357,0.0356,0.0356,0.0356,0.0345,0.0345,0.0345,0,0,0,0,0,0,0,0,0,0,0,0,0,0.0326,0.0327,0.0357,0.0358,0.0358,0.0364,0.0364,0.0364,0.0357,0.0356,0.0356,0.0356,0.0345,0.0345,0.0345,0,0,0,0,0,0,0,0,0,0,0,0,0,0.0336,0.0327,0.0357,0.0355,0.0355,0.0364,0.0364,0.0364,0.0357,0.0356,0.0356,0.0356,0.0345,0.0345,0.0345,0.0349,0,0,0.0344,0.0344,0,0,0,0,0,0,0,0,0.0336,0.0337,0.0356,0.0356,0.0356,0.036,0.0349,0.0358,0.0357,0.0355,0.0356,0.0356,0.0349,0.0348,0.0349,0.0349,0.0348,0.0344,0.0344,0.0344,0.0344,0,0,0,0,0,0,0,0.0335,0.0337,0.0359,0.0356,0.0356,0.035,0.0351,0.035,0.0353,0.0355,0.0355,0.0357,0.0349,0.035,0.0349,0.0348,0.0344,0.0344,0.0344,0.0344,0.0352,0.0353,0,0,0,0,0,0,0.0337,0.0336,0.0359,0.0359,0.0346,0.0351,0.0352,0.0358,0.0353,0.0353,0.0357,0.0357,0.035,0.0349,0.0349,0.0368,0.0344,0.0344,0.0344,0.0352,0.0352,0.0353,0,0,0,0,0,0,0.0336,0.0339,0.0359,0.0348,0.035,0.0352,0.0359,0.0358,0.0361,0.0355,0.0354,0.036,0.035,0.0349,0.0355,0.0367,0.0344,0.0343,0.0352,0.0352,0.0353,0.0397,0,0,0,0,0,0,0.0335,0.0339,0.0343,0.0349,0.0351,0.0368,0.0359,0.0359,0.0363,0.0362,0.0357,0.0356,0.0349,0.0356,0.0355,0.0366,0.0343,0.0351,0.0352,0.0353,0.0395,0.0399,0.0402,0,0,0,0,0,0.0334,0.0343,0.0343,0.0346,0.0358,0.0369,0.0369,0.0368,0.0363,0.0368,0.0367,0.0356,0.0359,0.0356,0.0355,0.0366,0.0351,0.0352,0.0352,0.0394,0.0398,0.0402,0,0,0,0,0,0,0.0331,0.0344,0.0344,0.0356,0.0363,0.0368,0.0372,0.0371,0.0374,0.0372,0.0364,0.0363,0.0372,0.0362,0.0359,0.0369,0.0351,0.0352,0.0383,0.0387,0.0391,0.0402,0.0343,0,0,0,0,0,0.0333,0.0344,0.0353,0.0363,0.0367,0.037,0.0373,0.0374,0.0377,0.0378,0.0376,0.0372,0.0375,0.0375,0.0374,0.0382,0.0367,0.0386,0.039,0.0393,0.0401,0.0397,0.0401,0.0355,0.0355,0.0355,0,0,0.0334,0.0343,0.0348,0.0363,0.0368,0.0383,0.0371,0.038,0.0394,0.0376,0.0393,0.0386,0.0379,0.039,0.0393,0.0384,0.0395,0.0394,0.0397,0.0403,0.0398,0.0402,0.0406,0.0356,0.0356,0.0356,0,0,0.0345,0.035,0.0365,0.0375,0.0386,0.0391,0.0395,0.0403,0.0406,0.042,0.0412,0.0415,0.0415,0.0417,0.0417,0.0438,0.0414,0.0432,0.0462,0.0457,0.0461,0.0465,0.0439,0.044,0.0434,0.0434,0.0434,0,0.0345,0.0368,0.037,0.0388,0.0402,0.0397,0.0419,0.0423,0.0432,0.0445,0.0429,0.044,0.043,0.0451,0.0457,0.0447,0.0434,0.0448,0.0463,0.0466,0.0469,0.0442,0.0442,0.0436,0.0436,0.0436,0.0435,0,0.0371,0.039,0.0399,0.0425,0.0437,0.0454,0.0464,0.0475,0.0476,0.0484,0.0502,0.0488,0.0495,0.0489,0.048,0.0498,0.0477,0.0469,0.0455,0.0476,0.0446,0.0446,0.0439,0.0439,0.0438,0.0437,0,0,0.0376,0.0412,0.0416,0.0438,0.046,0.0477,0.05,0.0528,0.0553,0.0548,0.0578,0.0571,0.0561,0.056,0.0544,0.0539,0.0537,0.0515,0.0514,0.0494,0.0513,0.0519,0.0518,0.0534,0.0534,0.0535,0.0479,0,0.0398,0.0442,0.0454,0.0498,0.0523,0.0533,0.0561,0.0583,0.0595,0.062,0.0607,0.0625,0.0589,0.0593,0.0582,0.0558,0.054,0.0551,0.0491,0.0489,0.0496,0.052,0.0565,0.0522,0.0479,0.0479,0.0479,0,0.0424,0.0453,0.0498,0.0547,0.056,0.0583,0.0633,0.0658,0.0688,0.0696,0.0704,0.0694,0.0691,0.0652,0.061,0.062,0.0568,0.0538,0.0535,0.0528,0.0495,0.0496,0.0523,0.0532,0.0477,0.0478,0.0478,0,0.0438,0.0486,0.0527,0.0543,0.0592,0.0617,0.0646,0.0683,0.0718,0.0747,0.0771,0.0757,0.0756,0.0702,0.0632,0.0623,0.0579,0.0555,0.0505,0.0503,0.0525,0.0525,0.0561,0.0517,0.0517,0.0517,0.0517,0,0.0464,0.0497,0.0537,0.0561,0.0617,0.0642,0.0702,0.0728,0.0773,0.0829,0.0811,0.084,0.077,0.0736,0.0657,0.0586,0.0592,0.0518,0.05,0.0539,0.0542,0.0536,0.0531,0.0515,0.0515,0.0516,0.0516,0,0.0476,0.0501,0.0551,0.0605,0.0627,0.0668,0.074,0.0785,0.082,0.089,0.0903,0.0905,0.087,0.0787,0.0702,0.0627,0.0561,0.0517,0.056,0.0549,0.0519,0.0513,0.0509,0.052,0.046,0.046,0.046,0,0.0488,0.0514,0.058,0.0614,0.0641,0.0703,0.0751,0.0804,0.0859,0.0934,0.0973,0.0962,0.097,0.0845,0.0728,0.0601,0.057,0.0538,0.0533,0.0538,0.0517,0.0508,0.0517,0.0564,0.0565,0.0566,0.0566,0,0.0509,0.0529,0.057,0.0639,0.0693,0.0761,0.0835,0.0886,0.0962,0.1023,0.1092,0.1104,0.1013,0.0933,0.0768,0.067,0.058,0.0548,0.0552,0.0611,0.0604,0.06,0.056,0.0572,0.0572,0.0571,0.0571,0.0571,0.0521,0.055,0.0602,0.0667,0.0731,0.0814,0.0874,0.0959,0.1054,0.1154,0.1166,0.1204,0.1114,0.0914,0.0798,0.0647,0.0623,0.0599,0.0589,0.0577,0.0611,0.0578,0.0575,0.0574,0.0574,0.0573,0.0573,0,0.0534,0.0569,0.0628,0.0708,0.0774,0.0812,0.0927,0.0994,0.1109,0.1201,0.1262,0.1263,0.1154,0.1005,0.0819,0.0723,0.0676,0.0662,0.0675,0.0679,0.0655,0.0686,0.0708,0.0708,0.0708,0.0708,0.0708,0.0708,0.0542,0.059,0.0619,0.0722,0.0783,0.0877,0.0942,0.1054,0.1145,0.1254,0.1301,0.1328,0.128,0.1013,0.0851,0.0786,0.0753,0.0719,0.0691,0.0693,0.0686,0.0681,0.0711,0.0738,0.0738,0.0746,0.0746,0.0746]}],[{"header":{"parameterUnit":"m.s-1","parameterCategory":2,"la1":30.2991,"la2":30.254,"lo1":-89.0895,"lo2":-89.0444,"dy":0.0017,"dx":0.0017,"nx":28,"ny":28,"refTime":"2024-05-22T21:00:00:Z","depth":"2","parameterNumber":2,"parameterNumberName":"U-component_of_CURRENTS"},"data":[0,0,0,0,0,0,0,0,0,0,0,0,0,0,0,0,0,0,0,0,0,0,0,0,0,0,0,0,0,0,0,0,0,0,0,0,0,0,0,0,0,0,0,0,0,0,0,0,0,0,0,0,0,0,0,0,0,0,0.1659,0.1659,0,0.166,0.166,0.166,0.1655,0.1655,0.1655,0.1655,0.1657,0.1657,0.1657,0,0,0,0,0,0,0,0,0,0,0,0,0,0.1674,0.1673,0.1659,0.1659,0.1659,0.166,0.166,0.166,0.1655,0.1655,0.1655,0.1654,0.1657,0.1657,0.1657,0,0,0,0,0,0,0,0,0,0,0,0,0,0.1669,0.1673,0.1659,0.1657,0.1657,0.166,0.166,0.166,0.1655,0.1655,0.1655,0.1654,0.1657,0.1657,0.1657,0.166,0,0,0.1658,0.1658,0,0,0,0,0,0,0,0,0.167,0.1669,0.1657,0.1657,0.1657,0.1658,0.1666,0.166,0.1655,0.1655,0.1655,0.1654,0.1658,0.1658,0.1657,0.166,0.166,0.1658,0.1658,0.1658,0.1658,0,0,0,0,0,0,0,0.167,0.1669,0.1659,0.1658,0.1658,0.1664,0.1663,0.1665,0.1656,0.1655,0.1655,0.1656,0.1658,0.1657,0.1657,0.166,0.1658,0.1658,0.1658,0.1658,0.1709,0.171,0,0,0,0,0,0,0.167,0.1669,0.1659,0.1659,0.1664,0.1663,0.1662,0.1657,0.1656,0.1656,0.1656,0.1656,0.1657,0.1657,0.1657,0.1693,0.1658,0.1658,0.1658,0.1707,0.1709,0.171,0,0,0,0,0,0,0.167,0.1669,0.1659,0.1665,0.1664,0.1663,0.1657,0.1657,0.1663,0.1657,0.1657,0.1663,0.1657,0.1657,0.167,0.1691,0.1658,0.1658,0.1706,0.1708,0.171,0.1743,0,0,0,0,0,0,0.1671,0.1669,0.167,0.1665,0.1664,0.1663,0.1658,0.1657,0.1664,0.1664,0.1663,0.1663,0.1657,0.167,0.1671,0.1691,0.1658,0.1704,0.1707,0.1709,0.174,0.1746,0.1751,0,0,0,0,0,0.1671,0.1669,0.167,0.1669,0.1663,0.1663,0.1664,0.1662,0.1664,0.1667,0.1673,0.1663,0.1686,0.1671,0.1671,0.1692,0.1703,0.1706,0.1709,0.1738,0.1745,0.175,0,0,0,0,0,0,0.1676,0.1669,0.1669,0.1665,0.1667,0.1663,0.1667,0.1668,0.1675,0.1678,0.1674,0.1674,0.1697,0.1691,0.1675,0.1716,0.1695,0.1698,0.1718,0.1724,0.1729,0.173,0.1658,0,0,0,0,0,0.1678,0.1674,0.1672,0.167,0.1672,0.1673,0.1675,0.1675,0.1679,0.1682,0.1682,0.1691,0.1708,0.1712,0.172,0.1737,0.1736,0.1753,0.1758,0.1763,0.1765,0.1794,0.1801,0.1719,0.1719,0.1719,0,0,0.1678,0.1676,0.1673,0.1672,0.1674,0.1678,0.1674,0.168,0.1688,0.1681,0.1696,0.1707,0.1717,0.174,0.175,0.1737,0.1785,0.1766,0.177,0.177,0.1797,0.1805,0.1812,0.1721,0.1721,0.1721,0,0,0.1678,0.1678,0.1676,0.168,0.1685,0.1687,0.1692,0.1694,0.1701,0.1717,0.1723,0.1747,0.1759,0.1774,0.1784,0.1823,0.1813,0.1829,0.1851,0.1879,0.1886,0.1892,0.1893,0.1899,0.1828,0.1829,0.1829,0,0.1682,0.1675,0.1677,0.168,0.1684,0.1693,0.1697,0.1708,0.1715,0.1728,0.1726,0.177,0.1778,0.1816,0.1834,0.1834,0.1839,0.1825,0.1885,0.1891,0.1896,0.1896,0.1902,0.1831,0.183,0.183,0.183,0,0.1677,0.1678,0.168,0.1686,0.1693,0.1698,0.1713,0.1728,0.1742,0.1753,0.1792,0.181,0.1834,0.185,0.1855,0.1904,0.1891,0.1889,0.1867,0.1906,0.1904,0.1909,0.1833,0.1833,0.1832,0.1832,0,0,0.1667,0.1674,0.1676,0.168,0.1696,0.17,0.1726,0.1748,0.1771,0.1793,0.1824,0.1866,0.1878,0.1891,0.1905,0.1935,0.198,0.1933,0.1933,0.1928,0.2027,0.1941,0.1938,0.1992,0.1994,0.1995,0.2006,0,0.1664,0.1665,0.1673,0.1683,0.1685,0.1709,0.1733,0.1759,0.1786,0.1821,0.1857,0.1892,0.1893,0.1915,0.1946,0.198,0.1999,0.1976,0.1994,0.1994,0.1909,0.1943,0.1764,0.1753,0.2011,0.2012,0.2013,0,0.1652,0.1656,0.1659,0.168,0.1686,0.17,0.1741,0.1764,0.182,0.1845,0.1886,0.1911,0.1965,0.1961,0.2021,0.2008,0.2019,0.2037,0.2038,0.1949,0.1918,0.1758,0.1753,0.2022,0.2021,0.2021,0.202,0,0.1631,0.1645,0.1646,0.1652,0.1681,0.1698,0.1723,0.1773,0.1799,0.1864,0.1892,0.1948,0.198,0.2017,0.2045,0.2044,0.2101,0.2099,0.2023,0.2016,0.1862,0.1838,0.2133,0.2133,0.2133,0.2133,0.2133,0,0.1615,0.1618,0.1639,0.164,0.1657,0.1687,0.1718,0.1756,0.1813,0.1844,0.1902,0.1931,0.2001,0.2035,0.2057,0.2049,0.2104,0.2029,0.2019,0.1866,0.1845,0.2077,0.2071,0.2133,0.2133,0.2133,0.2133,0,0.1587,0.1598,0.1602,0.1632,0.1643,0.1658,0.1706,0.1731,0.1793,0.1837,0.186,0.1932,0.1972,0.2014,0.2072,0.2047,0.2062,0.204,0.1841,0.1807,0.1954,0.195,0.1963,0.196,0.1958,0.1956,0.1954,0,0.1569,0.1566,0.1588,0.1593,0.1606,0.1633,0.1652,0.1713,0.1738,0.1823,0.184,0.1899,0.1908,0.1945,0.1926,0.1924,0.2001,0.175,0.1714,0.1951,0.194,0.1939,0.1938,0.1522,0.1517,0.1512,0.1509,0,0.154,0.1548,0.1553,0.156,0.1574,0.1588,0.1621,0.1635,0.1705,0.1732,0.1767,0.1784,0.1803,0.171,0.1701,0.1682,0.1738,0.1663,0.1973,0.159,0.1535,0.1524,0.1538,0.1472,0.1476,0.1478,0.148,0.1482,0.152,0.1514,0.152,0.1519,0.1533,0.1536,0.1521,0.155,0.1563,0.1573,0.1645,0.1598,0.1595,0.1482,0.1426,0.1379,0.1516,0.1442,0.1455,0.1473,0.1417,0.1361,0.1254,0.1256,0.1258,0.126,0.1261,0,0.1484,0.148,0.1478,0.1466,0.1449,0.1483,0.1488,0.1448,0.1414,0.143,0.1425,0.1278,0.1184,0.1189,0.1047,0.1033,0.1032,0.0991,0.0976,0.1013,0.1046,0.0969,0.0686,0.0685,0.0683,0.0682,0,0,0.1468,0.1442,0.143,0.1379,0.1373,0.1329,0.1314,0.1262,0.1241,0.1163,0.1104,0.1157,0.1159,0.0928,0.0878,0.0758,0.0889,0.072,0.1179,0.12,0.1232,0.1298,0.1219,0,0,0,0,0]},{"header":{"parameterUnit":"m.s-1","parameterCategory":2,"la1":30.2991,"la2":30.254,"lo1":-89.0895,"lo2":-89.0444,"dy":0.0017,"dx":0.0017,"nx":28,"ny":28,"refTime":"2024-05-22T21:00:00:Z","depth":"2","parameterNumber":3,"parameterNumberName":"V-component_of_CURRENTS"},"data":[0,0,0,0,0,0,0,0,0,0,0,0,0,0,0,0,0,0,0,0,0,0,0,0,0,0,0,0,0,0,0,0,0,0,0,0,0,0,0,0,0,0,0,0,0,0,0,0,0,0,0,0,0,0,0,0,0,0,0.0156,0.0156,0,0.0156,0.0156,0.0156,0.015,0.015,0.015,0.015,0.014,0.014,0.0139,0,0,0,0,0,0,0,0,0,0,0,0,0,0.0135,0.0135,0.0155,0.0156,0.0156,0.0156,0.0156,0.0156,0.015,0.015,0.015,0.015,0.014,0.014,0.0139,0,0,0,0,0,0,0,0,0,0,0,0,0,0.014,0.0135,0.0155,0.0153,0.0153,0.0156,0.0156,0.0156,0.015,0.015,0.015,0.015,0.014,0.014,0.0139,0.014,0,0,0.0138,0.0138,0,0,0,0,0,0,0,0,0.0139,0.014,0.0154,0.0154,0.0153,0.0154,0.0145,0.015,0.015,0.0151,0.015,0.015,0.0144,0.0143,0.0143,0.014,0.0139,0.0138,0.0138,0.0138,0.0138,0,0,0,0,0,0,0,0.0139,0.014,0.0155,0.0154,0.0154,0.0147,0.0148,0.0146,0.0147,0.0151,0.015,0.0152,0.0144,0.0143,0.0143,0.0139,0.0138,0.0138,0.0138,0.0138,0.0144,0.0145,0,0,0,0,0,0,0.0142,0.014,0.0155,0.0155,0.0147,0.0148,0.0149,0.0153,0.0148,0.0147,0.0152,0.0151,0.0144,0.0143,0.0142,0.0161,0.0138,0.0138,0.0138,0.0144,0.0144,0.0145,0,0,0,0,0,0,0.0141,0.0143,0.0155,0.0148,0.0149,0.0149,0.0154,0.0153,0.0156,0.0149,0.0148,0.0156,0.0144,0.0143,0.0148,0.016,0.0138,0.0137,0.0144,0.0144,0.0145,0.0187,0,0,0,0,0,0,0.0141,0.0143,0.0147,0.0148,0.015,0.0163,0.0154,0.0153,0.0158,0.0157,0.0152,0.0151,0.0143,0.0149,0.0148,0.0159,0.0137,0.0143,0.0144,0.0144,0.0185,0.0189,0.0192,0,0,0,0,0,0.014,0.0148,0.0148,0.0149,0.0156,0.0163,0.0163,0.0162,0.0158,0.0163,0.0161,0.0151,0.0152,0.0149,0.0148,0.0159,0.0143,0.0144,0.0144,0.0184,0.0189,0.0192,0,0,0,0,0,0,0.0141,0.0148,0.0148,0.0157,0.0162,0.0163,0.0167,0.0166,0.0168,0.0167,0.0158,0.0157,0.0166,0.0156,0.0152,0.0162,0.0145,0.0145,0.0175,0.0179,0.0183,0.0194,0.0137,0,0,0,0,0,0.0143,0.0152,0.0156,0.0165,0.0168,0.0168,0.0171,0.0171,0.0172,0.0173,0.0171,0.0167,0.0167,0.0168,0.0165,0.0173,0.0161,0.0177,0.0181,0.0184,0.0191,0.0187,0.0191,0.0147,0.0147,0.0147,0,0,0.0146,0.0151,0.0156,0.0166,0.0169,0.0181,0.017,0.0177,0.0189,0.0172,0.0187,0.018,0.0172,0.0181,0.0184,0.0175,0.0188,0.0185,0.0188,0.0194,0.0188,0.0192,0.0196,0.0148,0.0148,0.0148,0,0,0.0158,0.0161,0.0173,0.018,0.0189,0.0191,0.0196,0.02,0.0204,0.0215,0.0206,0.0209,0.0208,0.0208,0.0206,0.0226,0.0207,0.0222,0.0251,0.0246,0.025,0.0253,0.0238,0.024,0.0224,0.0224,0.0224,0,0.016,0.0179,0.0178,0.0193,0.0204,0.0199,0.0218,0.0221,0.0227,0.0238,0.0225,0.0233,0.0222,0.0239,0.0245,0.0235,0.0226,0.0237,0.0252,0.0255,0.0257,0.0241,0.0242,0.0226,0.0226,0.0226,0.0226,0,0.0184,0.0199,0.0207,0.0228,0.0238,0.0253,0.026,0.027,0.0272,0.0278,0.0294,0.0279,0.0284,0.0278,0.0268,0.0284,0.0269,0.0257,0.0243,0.0264,0.0246,0.0246,0.0229,0.0229,0.0228,0.0227,0,0,0.0191,0.0219,0.0223,0.0242,0.026,0.0274,0.0294,0.0318,0.0341,0.0337,0.0365,0.0356,0.0347,0.0345,0.0328,0.0323,0.0326,0.0301,0.03,0.0291,0.0311,0.0315,0.0315,0.0319,0.032,0.032,0.0289,0,0.0213,0.0249,0.0258,0.0297,0.0318,0.0326,0.035,0.0369,0.038,0.0403,0.039,0.0407,0.0372,0.0377,0.0366,0.0343,0.033,0.0335,0.0289,0.0287,0.0292,0.0317,0.0327,0.0303,0.0289,0.0289,0.0289,0,0.0236,0.026,0.03,0.0341,0.0352,0.0375,0.0419,0.0441,0.0467,0.0475,0.0482,0.0472,0.047,0.0433,0.0397,0.0403,0.0361,0.0334,0.0332,0.0323,0.0292,0.028,0.0303,0.029,0.029,0.029,0.029,0,0.025,0.0292,0.0327,0.0341,0.0383,0.0407,0.0433,0.0466,0.0498,0.0524,0.0548,0.0534,0.0535,0.0486,0.0425,0.0414,0.0382,0.0356,0.0315,0.0314,0.0308,0.0306,0.0326,0.0326,0.0326,0.0326,0.0326,0,0.0274,0.0304,0.0338,0.036,0.0411,0.0432,0.0489,0.0512,0.0553,0.0605,0.0587,0.0615,0.055,0.0522,0.0451,0.0392,0.0398,0.0329,0.0314,0.0322,0.0322,0.0299,0.0296,0.0325,0.0325,0.0325,0.0325,0,0.0288,0.0308,0.0353,0.04,0.0421,0.0459,0.0527,0.0568,0.0602,0.0667,0.068,0.0683,0.0656,0.058,0.0505,0.0436,0.0371,0.0341,0.0353,0.034,0.0295,0.0295,0.0297,0.0297,0.0297,0.0297,0.0298,0,0.0299,0.0322,0.0381,0.0413,0.0438,0.0496,0.0541,0.059,0.0641,0.0712,0.0749,0.0745,0.0752,0.0643,0.0536,0.0424,0.0386,0.034,0.0322,0.0312,0.0295,0.0295,0.0295,0.0321,0.0321,0.0322,0.0322,0,0.0319,0.0338,0.0376,0.0439,0.049,0.0553,0.0623,0.0669,0.0739,0.0795,0.0861,0.0872,0.0795,0.0703,0.0555,0.0467,0.0362,0.034,0.0335,0.0333,0.0333,0.0318,0.0317,0.0323,0.0323,0.0323,0.0323,0.0323,0.0334,0.0361,0.0408,0.0469,0.053,0.0606,0.0661,0.0737,0.0823,0.091,0.0926,0.0941,0.0843,0.0666,0.0536,0.0389,0.0398,0.032,0.032,0.0319,0.0334,0.0335,0.0327,0.0327,0.0327,0.0327,0.0327,0,0.0351,0.0384,0.0436,0.051,0.0572,0.0608,0.0713,0.0769,0.0869,0.0943,0.0995,0.0889,0.0804,0.0673,0.0482,0.0367,0.034,0.0298,0.0298,0.0298,0.0298,0.0311,0.0298,0.0298,0.0297,0.0297,0,0,0.0361,0.0406,0.0431,0.0527,0.0585,0.0674,0.0734,0.0822,0.0892,0.0951,0.0962,0.0983,0.0849,0.0693,0.0544,0.0428,0.0377,0.0385,0.0424,0.0444,0.0445,0.0331,0.0354,0,0,0,0,0]}],[{"header":{"parameterUnit":"m.s-1","parameterCategory":2,"la1":30.2991,"la2":30.254,"lo1":-89.0895,"lo2":-89.0444,"dy":0.0017,"dx":0.0017,"nx":28,"ny":28,"refTime":"2024-05-22T21:00:00:Z","depth":"4","parameterNumber":2,"parameterNumberName":"U-component_of_CURRENTS"},"data":[0,0,0,0,0,0,0,0,0,0,0,0,0,0,0,0,0,0,0,0,0,0,0,0,0,0,0,0,0,0,0,0,0,0,0,0,0,0,0,0,0,0,0,0,0,0,0,0,0,0,0,0,0,0,0,0,0,0,0.0986,0.0986,0,0.1002,0.1002,0.1002,0.1026,0.1026,0.1027,0.1027,0.1058,0.1059,0.1059,0,0,0,0,0,0,0,0,0,0,0,0,0,0.0985,0.0984,0.0986,0.0986,0.0986,0.1002,0.1002,0.1002,0.1026,0.1026,0.1027,0.1027,0.1058,0.1059,0.1059,0,0,0,0,0,0,0,0,0,0,0,0,0,0.099,0.0984,0.0986,0.1001,0.1002,0.1001,0.1002,0.1002,0.1025,0.1026,0.1027,0.1028,0.1058,0.1059,0.1059,0.1047,0,0,0.1061,0.1061,0,0,0,0,0,0,0,0,0.099,0.099,0.0998,0.1,0.1002,0.1013,0.1013,0.1018,0.1025,0.1016,0.1027,0.1028,0.1045,0.1046,0.1046,0.1048,0.105,0.1061,0.1061,0.1061,0.1061,0,0,0,0,0,0,0,0.099,0.099,0.0991,0.0999,0.1001,0.101,0.1011,0.1014,0.1025,0.1017,0.1019,0.1022,0.1046,0.1045,0.1047,0.105,0.1061,0.1061,0.1061,0.1062,0.1113,0.1114,0,0,0,0,0,0,0.0988,0.0989,0.0991,0.0992,0.0999,0.1009,0.1011,0.1008,0.1025,0.1028,0.1021,0.1023,0.1044,0.1046,0.1048,0.1096,0.1061,0.1062,0.1062,0.1112,0.1113,0.1114,0,0,0,0,0,0,0.0988,0.0988,0.099,0.0992,0.0993,0.1008,0.1005,0.1008,0.103,0.1028,0.1032,0.1043,0.1045,0.1047,0.1071,0.1096,0.1062,0.1062,0.1111,0.1112,0.1114,0.1153,0,0,0,0,0,0,0.0988,0.0987,0.0998,0.0992,0.0993,0.1001,0.1005,0.1008,0.103,0.1033,0.1048,0.105,0.1046,0.1071,0.1072,0.1096,0.1063,0.1109,0.1111,0.1113,0.1151,0.1156,0.1161,0,0,0,0,0,0.0987,0.0992,0.0998,0.0999,0.1002,0.1002,0.1004,0.1016,0.1031,0.104,0.1056,0.1051,0.1084,0.1072,0.1073,0.1098,0.1108,0.1111,0.1113,0.1149,0.1155,0.1161,0,0,0,0,0,0,0.0999,0.0995,0.1001,0.1006,0.1011,0.1007,0.1022,0.1029,0.1048,0.1061,0.106,0.1064,0.1095,0.109,0.1077,0.1119,0.1097,0.11,0.1124,0.113,0.1135,0.1134,0.1063,0,0,0,0,0,0.1005,0.1009,0.1006,0.1014,0.1019,0.1025,0.1033,0.1041,0.1051,0.1061,0.1071,0.1086,0.1101,0.1112,0.1119,0.1139,0.1141,0.1158,0.1163,0.1167,0.1168,0.1195,0.1202,0.1122,0.1122,0.1122,0,0,0.1013,0.1013,0.1017,0.1018,0.1026,0.1031,0.1033,0.105,0.1063,0.1061,0.1092,0.1105,0.111,0.1135,0.1149,0.1138,0.1191,0.117,0.1173,0.1172,0.1198,0.1206,0.1213,0.1124,0.1123,0.1123,0,0,0.1022,0.1031,0.1035,0.104,0.1053,0.1054,0.1064,0.1073,0.1089,0.1114,0.1121,0.1148,0.1167,0.1175,0.1181,0.1218,0.1217,0.1228,0.1252,0.1279,0.1286,0.1292,0.1304,0.1311,0.123,0.123,0.123,0,0.1037,0.1034,0.1039,0.1044,0.1051,0.1067,0.1073,0.1089,0.1107,0.1123,0.1133,0.1176,0.1184,0.1211,0.123,0.1229,0.1242,0.1229,0.1285,0.1291,0.1297,0.1308,0.1315,0.1232,0.1232,0.1232,0.1231,0,0.1037,0.1047,0.1052,0.106,0.107,0.1082,0.1096,0.1119,0.1146,0.1159,0.1203,0.1218,0.1243,0.1255,0.1257,0.13,0.1296,0.1289,0.1269,0.1307,0.1317,0.1324,0.1235,0.1234,0.1234,0.1233,0,0,0.1037,0.1049,0.1054,0.106,0.1081,0.1085,0.1116,0.1137,0.1164,0.1199,0.1233,0.1268,0.1287,0.1295,0.1305,0.1331,0.1384,0.1334,0.1335,0.1345,0.1443,0.1327,0.1322,0.1395,0.1396,0.1397,0.1435,0,0.1038,0.1045,0.1054,0.107,0.1074,0.1099,0.1122,0.1151,0.1186,0.1224,0.1258,0.1295,0.1299,0.1324,0.1353,0.1381,0.1404,0.1374,0.1406,0.1407,0.1297,0.1327,0.1401,0.1439,0.1441,0.1442,0.1443,0,0.1029,0.1036,0.1049,0.1069,0.1075,0.1095,0.1136,0.1161,0.1217,0.1246,0.1292,0.132,0.1372,0.137,0.1433,0.1419,0.1436,0.1451,0.1452,0.1332,0.1302,0.1394,0.1454,0.1453,0.1452,0.1452,0.1451,0,0.1009,0.103,0.1041,0.1048,0.1076,0.11,0.1126,0.1175,0.1198,0.1271,0.1301,0.1358,0.14,0.1436,0.1471,0.1465,0.1532,0.1521,0.1426,0.1418,0.1495,0.1488,0.1558,0.1558,0.1558,0.1558,0.1558,0,0.0989,0.1001,0.1038,0.1043,0.1066,0.1097,0.1132,0.1169,0.1223,0.1251,0.1318,0.1344,0.1425,0.1467,0.1488,0.1473,0.1545,0.1431,0.142,0.151,0.1505,0.1499,0.1492,0.1559,0.1559,0.1559,0.1559,0,0.0958,0.0982,0.0997,0.1039,0.1055,0.1077,0.1126,0.1144,0.1212,0.1253,0.128,0.1356,0.1406,0.1459,0.152,0.1479,0.1485,0.1459,0.1553,0.1547,0.135,0.1344,0.1353,0.135,0.1346,0.1344,0.1341,0,0.0937,0.0944,0.099,0.1001,0.1024,0.106,0.1076,0.1135,0.1149,0.1241,0.1248,0.1327,0.1368,0.1359,0.1423,0.1439,0.1422,0.1412,0.1375,0.134,0.133,0.1329,0.1328,0.1336,0.1335,0.1335,0.1334,0,0.09,0.093,0.0944,0.0966,0.0988,0.0995,0.1028,0.1027,0.1093,0.1167,0.1181,0.1205,0.1252,0.1288,0.1309,0.132,0.1412,0.1378,0.1384,0.135,0.132,0.1312,0.1315,0.1323,0.1324,0.1325,0.1326,0,0.088,0.0881,0.0907,0.0915,0.0939,0.0921,0.0943,0.0949,0.0969,0.1065,0.1069,0.1156,0.1236,0.1225,0.1247,0.1245,0.1223,0.1178,0.1194,0.1207,0.1141,0.1079,0.0999,0,0,0,0,0,0.0852,0.084,0.0847,0.0839,0.0858,0.087,0.09,0.0921,0.0987,0.0964,0.1009,0.1044,0.1069,0.1111,0.108,0.1182,0.1231,0.114,0.1189,0.1261,0.1274,0.1208,0,0,0,0,0,0,0.0829,0.0839,0.0825,0.0775,0.0759,0.0761,0.078,0.0823,0.0805,0.0888,0.0907,0.0973,0.1015,0.1081,0.1061,0.1073,0.1078,0.1192,0.1188,0.1254,0.1265,0.1276,0.1212,0,0,0,0,0]},{"header":{"parameterUnit":"m.s-1","parameterCategory":2,"la1":30.2991,"la2":30.254,"lo1":-89.0895,"lo2":-89.0444,"dy":0.0017,"dx":0.0017,"nx":28,"ny":28,"refTime":"2024-05-22T21:00:00:Z","depth":"4","parameterNumber":3,"parameterNumberName":"V-component_of_CURRENTS"},"data":[0,0,0,0,0,0,0,0,0,0,0,0,0,0,0,0,0,0,0,0,0,0,0,0,0,0,0,0,0,0,0,0,0,0,0,0,0,0,0,0,0,0,0,0,0,0,0,0,0,0,0,0,0,0,0,0,0,0,0.006,0.006,0,0.0058,0.0058,0.0057,0.0052,0.0052,0.0052,0.0052,0.0043,0.0043,0.0043,0,0,0,0,0,0,0,0,0,0,0,0,0,0.0049,0.0049,0.006,0.006,0.006,0.0058,0.0058,0.0057,0.0052,0.0052,0.0052,0.0052,0.0043,0.0043,0.0043,0,0,0,0,0,0,0,0,0,0,0,0,0,0.0051,0.005,0.006,0.0057,0.0057,0.0058,0.0058,0.0057,0.0052,0.0052,0.0052,0.0052,0.0043,0.0043,0.0043,0.0043,0,0,0.0042,0.0042,0,0,0,0,0,0,0,0,0.0051,0.0051,0.0058,0.0058,0.0057,0.0055,0.005,0.0053,0.0052,0.0054,0.0052,0.0052,0.0047,0.0046,0.0046,0.0043,0.0043,0.0042,0.0042,0.0042,0.0042,0,0,0,0,0,0,0,0.0051,0.0051,0.0059,0.0058,0.0057,0.0052,0.0053,0.0051,0.0051,0.0054,0.0053,0.0054,0.0047,0.0046,0.0045,0.0043,0.0042,0.0042,0.0041,0.0041,0.0045,0.0046,0,0,0,0,0,0,0.0052,0.0051,0.0059,0.0059,0.0054,0.0053,0.0053,0.0056,0.0051,0.005,0.0054,0.0053,0.0046,0.0046,0.0045,0.006,0.0042,0.0041,0.0041,0.0045,0.0046,0.0046,0,0,0,0,0,0,0.0052,0.0053,0.0059,0.0055,0.0055,0.0053,0.0056,0.0056,0.0058,0.0051,0.005,0.0056,0.0046,0.0045,0.0049,0.0059,0.0041,0.0041,0.0045,0.0045,0.0046,0.0081,0,0,0,0,0,0,0.0052,0.0053,0.0056,0.0055,0.0056,0.0064,0.0057,0.0056,0.0058,0.0058,0.0053,0.0052,0.0046,0.005,0.0049,0.0059,0.0041,0.0045,0.0045,0.0046,0.008,0.0083,0.0085,0,0,0,0,0,0.0052,0.0057,0.0057,0.0058,0.006,0.0065,0.0065,0.0062,0.0058,0.0063,0.006,0.0052,0.0052,0.005,0.0049,0.0059,0.0044,0.0045,0.0045,0.0078,0.0082,0.0085,0,0,0,0,0,0,0.0054,0.0057,0.0056,0.0063,0.0066,0.0064,0.0067,0.0065,0.0066,0.0065,0.0058,0.0057,0.0063,0.0055,0.0053,0.006,0.0046,0.0046,0.0071,0.0075,0.0077,0.0084,0.0041,0,0,0,0,0,0.0056,0.0062,0.0063,0.0069,0.0071,0.007,0.0071,0.007,0.007,0.007,0.0068,0.0064,0.0065,0.0065,0.0062,0.0068,0.006,0.0072,0.0075,0.0077,0.0081,0.0078,0.0081,0.0048,0.0048,0.0048,0,0,0.0059,0.0061,0.0064,0.007,0.0071,0.008,0.007,0.0075,0.0084,0.0069,0.008,0.0074,0.0068,0.0075,0.0077,0.007,0.0082,0.0078,0.0081,0.0083,0.0079,0.0082,0.0085,0.0048,0.0048,0.0048,0,0,0.0068,0.0069,0.0077,0.0082,0.0087,0.0088,0.0091,0.0093,0.0095,0.0104,0.0096,0.0097,0.0097,0.0096,0.0095,0.0111,0.0097,0.0108,0.0129,0.0126,0.0129,0.0131,0.0126,0.0128,0.011,0.011,0.011,0,0.007,0.0083,0.0081,0.0091,0.0099,0.0094,0.0108,0.011,0.0113,0.0121,0.0112,0.0116,0.0108,0.0121,0.0125,0.0118,0.0113,0.0119,0.0131,0.0133,0.0135,0.0129,0.013,0.0112,0.0111,0.0111,0.0111,0,0.0087,0.0097,0.0103,0.0117,0.0125,0.0135,0.014,0.0148,0.0149,0.0153,0.0165,0.0153,0.0157,0.0152,0.0144,0.0155,0.0146,0.0135,0.0124,0.014,0.0133,0.0133,0.0114,0.0114,0.0113,0.0113,0,0,0.0092,0.0111,0.0114,0.0128,0.0141,0.0151,0.0167,0.0186,0.0203,0.0199,0.022,0.0213,0.0206,0.0204,0.019,0.0185,0.019,0.0168,0.0167,0.0166,0.0184,0.0177,0.0177,0.0183,0.0184,0.0184,0.0174,0,0.0107,0.0132,0.0139,0.0169,0.0183,0.019,0.0209,0.0224,0.0233,0.0251,0.0241,0.0253,0.0226,0.0229,0.022,0.0202,0.0194,0.0194,0.0165,0.0164,0.0159,0.0178,0.0185,0.0175,0.0175,0.0175,0.0175,0,0.0123,0.0139,0.0168,0.02,0.0208,0.0226,0.0261,0.0279,0.0299,0.0306,0.0312,0.0304,0.0302,0.0272,0.0248,0.025,0.022,0.0199,0.0198,0.018,0.0159,0.0154,0.0176,0.0176,0.0176,0.0176,0.0176,0,0.0131,0.0162,0.0188,0.0198,0.023,0.025,0.0271,0.0298,0.0324,0.0345,0.0364,0.0353,0.0357,0.0319,0.0275,0.0264,0.0244,0.0222,0.0186,0.0185,0.0178,0.0175,0.0201,0.0201,0.0201,0.0201,0.0201,0,0.0146,0.0168,0.0195,0.0211,0.0251,0.0268,0.0313,0.0332,0.0366,0.0406,0.0395,0.0416,0.0369,0.0351,0.0297,0.0251,0.0261,0.0196,0.0185,0.0192,0.0192,0.0178,0.0176,0.02,0.02,0.02,0.0201,0,0.0152,0.0168,0.0202,0.0239,0.0256,0.0287,0.0344,0.0377,0.0405,0.0456,0.0467,0.0473,0.0455,0.0401,0.0346,0.0289,0.0237,0.0214,0.0233,0.0223,0.0172,0.0172,0.0174,0.0174,0.0174,0.0174,0.0174,0,0.0157,0.0173,0.0221,0.0247,0.0268,0.0314,0.0352,0.0393,0.0432,0.0491,0.0517,0.0521,0.0513,0.0437,0.037,0.0274,0.0249,0.0213,0.0182,0.0182,0.0171,0.0171,0.0171,0.0173,0.0173,0.0173,0.0173,0,0.0167,0.0184,0.0213,0.0263,0.0306,0.0357,0.0412,0.0443,0.0499,0.0524,0.0563,0.0533,0.0516,0.0446,0.0377,0.0301,0.0232,0.021,0.0209,0.018,0.018,0.017,0.017,0.0172,0.0172,0.0172,0.0172,0,0.0177,0.0197,0.0234,0.0281,0.0334,0.0389,0.0417,0.0469,0.051,0.0569,0.0581,0.0565,0.0558,0.0461,0.0397,0.0327,0.0295,0.0244,0.024,0.024,0.0255,0.0265,0.0281,0,0,0,0,0,0.0187,0.0211,0.025,0.0305,0.0356,0.0389,0.0456,0.0482,0.0534,0.0562,0.0573,0.0557,0.0483,0.0457,0.0386,0.0376,0.0272,0.0286,0.0209,0.0168,0.0169,0.0173,0,0,0,0,0,0,0.0193,0.023,0.0249,0.0316,0.0353,0.0416,0.046,0.0495,0.051,0.0549,0.0515,0.0513,0.0444,0.0523,0.0377,0.0359,0.0293,0.026,0.0257,0.0168,0.0168,0.0169,0.0174,0,0,0,0,0]}]]